Bloomington, IL

11:26 PM CDT on May 23, 2017 (GMT -0500)
Central Ill Regional

Weather History for KBMI - January, 2013

Change the Weather History Date:

Sunday, January 20, 2013

  Actual Average Record
Temperature  
Mean Temperature 24 °F -  
Max Temperature 31 °F 26 °F 48 °F (2017)
Min Temperature 17 °F 12 °F -8 °F (1963)
Degree Days  
Heating Degree Days 41    
Moisture  
Dew Point 10 °F    
Average Humidity 64    
Maximum Humidity 79    
Minimum Humidity 49    
Precipitation  
Precipitation 0.00 in - - ()
Sea Level Pressure  
Sea Level Pressure 30.31 in    
Wind  
Wind Speed 17 mph (NW)    
Max Wind Speed 30 mph    
Max Gust Speed 37 mph    
Visibility 10 miles    
Events Snow    
Averages and records for this station are not official NWS values.
T = Trace of Precipitation, MM = Missing Value Source: NWS Daily Summary

Daily Weather History Graph

Daily Weather History Graph

Search for Another Location

Airport or City:

Trip Planner

Search our weather history database for the weather conditions in past years. The results will help you decide how hot, cold, wet, or windy it might be!

Date:

Astronomy

Jan. 20, 2013 Rise Set
Actual Time 7:14 AM CST 4:59 PM CST
Civil Twilight 6:44 AM CST 5:29 PM CST
Nautical Twilight 6:11 AM CST 6:02 PM CST
Astronomical Twilight 5:38 AM CST 6:35 PM CST
Moon 12:00 PM CST (1/20) 1:46 AM CST (1/20)
Length of Visible Light 10h 44m
Length of Day
9h 45m
Waxing Gibbous, 66% of the Moon is Illuminated
Jan 20
Waxing Gibbous
Jan 26
Full
Feb 3
Last Quarter
Feb 10
New
Feb 17
First Quarter

Hourly Weather History & Observations

Time (CST) Temp. Windchill Dew Point Humidity Pressure Visibility Wind Dir Wind Speed Gust Speed Precip Events Conditions
12:56 AM 31.1 °F 16.4 °F 19.0 °F 61% 30.13 in 10.0 mi WNW 29.9 mph 36.8 mph N/A   Clear
1:56 AM 26.1 °F 12.7 °F 9.1 °F 49% 30.17 in 10.0 mi NW 18.4 mph 32.2 mph N/A   Clear
2:56 AM 24.1 °F 8.3 °F 10.0 °F 55% 30.19 in 10.0 mi WNW 24.2 mph 28.8 mph N/A   Clear
3:56 AM 22.1 °F 8.0 °F 11.1 °F 63% 30.22 in 10.0 mi WNW 17.3 mph - N/A   Clear
4:56 AM 19.0 °F 2.7 °F 7.2 °F 60% 30.28 in 10.0 mi NW 20.7 mph 25.3 mph N/A   Clear
5:56 AM 18.1 °F 5.0 °F 8.1 °F 65% 30.30 in 10.0 mi NNW 12.7 mph - N/A   Clear
6:56 AM 17.1 °F 3.0 °F 10.0 °F 74% 30.32 in 10.0 mi NW 13.8 mph - N/A   Clear
7:56 AM 17.1 °F 3.6 °F 9.1 °F 71% 30.34 in 10.0 mi NW 12.7 mph - N/A   Clear
8:56 AM 18.1 °F 5.0 °F 9.1 °F 68% 30.34 in 10.0 mi NW 12.7 mph - N/A   Scattered Clouds
9:56 AM 19.0 °F 7.5 °F 7.2 °F 60% 30.37 in 10.0 mi NNW 10.4 mph - N/A   Partly Cloudy
10:56 AM 21.0 °F 16.2 °F 8.1 °F 57% 30.37 in 10.0 mi NNW 3.5 mph - N/A   Mostly Cloudy
11:56 AM 23.0 °F 12.4 °F 9.1 °F 55% 30.34 in 10.0 mi NW 10.4 mph - N/A   Partly Cloudy
12:56 PM 22.1 °F 11.3 °F 9.1 °F 58% 30.34 in 10.0 mi WNW 10.4 mph - N/A   Scattered Clouds
1:56 PM 22.1 °F 10.6 °F 8.1 °F 55% 30.35 in 10.0 mi WNW 11.5 mph - N/A   Overcast
2:56 PM 22.1 °F 11.3 °F 9.1 °F 58% 30.35 in 10.0 mi WNW 10.4 mph - N/A   Overcast
3:56 PM 22.1 °F 10.0 °F 9.1 °F 58% 30.35 in 10.0 mi NW 12.7 mph - N/A   Overcast
4:56 PM 21.0 °F 10.6 °F 9.1 °F 60% 30.35 in 10.0 mi NW 9.2 mph - N/A   Overcast
5:56 PM 21.0 °F 8.6 °F 9.1 °F 60% 30.35 in 10.0 mi NW 12.7 mph - N/A   Overcast
6:56 PM 20.1 °F 8.8 °F 9.1 °F 62% 30.36 in 10.0 mi NNW 10.4 mph - 0.00 in Snow Light Snow
7:56 PM 19.0 °F 8.2 °F 12.0 °F 74% 30.36 in 4.0 mi NW 9.2 mph - 0.00 in Snow Light Snow
8:56 PM 18.1 °F 6.3 °F 12.0 °F 77% 30.35 in 10.0 mi NW 10.4 mph - 0.00 in Snow Light Snow
9:25 PM 17.6 °F 5.7 °F 12.2 °F 79% 30.26 in 10.0 mi WNW 10.4 mph - 0.00 in   Overcast
9:56 PM 19.0 °F 7.5 °F 13.1 °F 78% 30.33 in 10.0 mi WNW 10.4 mph - 0.00 in Snow Light Snow
10:56 PM 18.1 °F 6.3 °F 12.0 °F 77% 30.32 in 10.0 mi WNW 10.4 mph - 0.00 in Snow Light Snow
11:56 PM 18.1 °F 4.4 °F 11.1 °F 74% 30.30 in 10.0 mi WNW 13.8 mph - 0.00 in Snow Light Snow